Flag for Norway Weather past 2 weeks in Bardufoss, Norway

Now
52 °F

Scattered showers. Partly sunny.


Feels Like: 49 °F
Forecast: 44 / 58 °F
Wind: 7 mph from Northeast

Location: Bardufoss

Current Time: Aug 20, 2014 at 11:10:52 PM

Latest Report: Aug 20, 2014 at 9:50 PM


Visibility: N/A

Pressure: 29.56 "Hg

Humidity: 72%

Dew point: 43 °F

Location of BardufossLocation

Historic Weather in Bardufoss — Graph

°F

Bardufoss temperature yesterday

Maximum temperature yesterday: 57 °F (at 2:20 PM)
Minimum temperature yesterday: 50 °F (at 4:50 AM)
Average temperature yesterday: 53 °F

Past Weeks' High & Low Weather Summary

 TemperatureHumidityPressure
High72 °F (Aug 6, 1:20 PM)100% (Aug 12, 11:50 PM)30.07 "Hg (Aug 12, 11:50 PM)
Low45 °F (Aug 11, 3:50 AM)47% (Aug 12, 2:20 PM)29.30 "Hg (Aug 13, 2:50 AM)
Average56 °F77%29.67 "Hg
* Reported Aug 5 9:50 PM — Aug 20 9:50 PM, Bardufoss, Weather by CustomWeather, © 2014

Note: Actual official high and low records may vary slightly from our data, if they occured in-between our weather recording intervals... More about our weather records

Advertising

Bardufoss weather history for previous 24 hours

 ConditionsComfort  
Time TempWeatherWind HumidityBarometerVisibility
9:50 PM
Aug 20
52 °FScattered showers. Partly sunny.7 mph72%29.56 "HgN/A
8:50 PM54 °FPartly sunny.6 mph72%29.56 "HgN/A
7:50 PM54 °FScattered showers. Partly sunny.5 mph72%29.56 "HgN/A
6:50 PM54 °FScattered showers. Partly sunny.7 mph72%29.56 "HgN/A
6:20 PM55 °FScattered showers. Partly sunny.8 mph72%29.56 "HgN/A
5:50 PM55 °FScattered showers. Partly sunny.5 mph72%29.53 "HgN/A
5:20 PM55 °FScattered showers. Partly sunny.7 mph72%29.53 "HgN/A
4:50 PM55 °FScattered showers. Broken clouds.6 mph72%29.53 "HgN/A
4:20 PM55 °FScattered showers. Broken clouds.6 mph72%29.53 "HgN/A
3:50 PM55 °FScattered showers. Broken clouds.6 mph72%29.53 "HgN/A
3:20 PM55 °FScattered showers. Broken clouds.6 mph72%29.53 "HgN/A
2:50 PM55 °FScattered showers. Broken clouds.5 mph72%29.53 "HgN/A
2:20 PM55 °FScattered showers. Broken clouds.5 mph72%29.53 "HgN/A
1:50 PM55 °FScattered showers. Broken clouds.3 mph72%29.53 "HgN/A
1:20 PM55 °FScattered showers. Broken clouds.9 mph67%29.53 "HgN/A
12:50 PM55 °FScattered showers. Broken clouds.6 mph72%29.53 "HgN/A
12:20 PM55 °FBroken clouds.6 mph72%29.53 "HgN/A
11:50 AM55 °FBroken clouds.6 mph72%29.50 "HgN/A
11:20 AM55 °FBroken clouds.6 mph72%29.53 "HgN/A
10:50 AM55 °FBroken clouds.5 mph72%29.50 "HgN/A
10:20 AM55 °FBroken clouds.6 mph67%29.50 "HgN/A
9:50 AM54 °FBroken clouds.2 mph72%29.50 "HgN/A
9:20 AM55 °FBroken clouds.3 mph72%29.50 "HgN/A
8:50 AM54 °FBroken clouds.7 mph72%29.50 "HgN/A
8:20 AM54 °FBroken clouds.5 mph72%29.50 "HgN/A
7:50 AM52 °FBroken clouds.3 mph77%29.50 "HgN/A
7:20 AM52 °FBroken clouds.3 mph77%29.50 "HgN/A
6:50 AM50 °FBroken clouds.5 mph82%29.50 "HgN/A
6:20 AM50 °FPartly sunny.5 mph82%29.50 "HgN/A
5:50 AM50 °FPartly sunny.3 mph82%29.50 "HgN/A
5:20 AM50 °FPartly sunny.6 mph82%29.50 "HgN/A
4:50 AM50 °FPartly cloudy.6 mph82%29.50 "HgN/A
3:50 AM52 °FPartly cloudy.6 mph77%29.50 "HgN/A
2:50 AM52 °FPartly cloudy.6 mph77%29.50 "HgN/A
1:50 AM52 °FPassing clouds.6 mph72%29.50 "HgN/A
12:50 AM52 °FPassing clouds.6 mph77%29.50 "HgN/A
11:50 PM
Aug 19
52 °FPassing clouds.6 mph77%29.50 "HgN/A
Weather by CustomWeather, © 2014

See weather overviewHow to use our weather pages